When you browse on this site, cookies collect data to enhance your experience and personalize the content and advertising you see.
Visit our Privacy Policy to learn more. By continuing to use the site, you agree to this use of cookies and data.
  • In Netherlands
  • List of Countries
  • For 7 days
  • Water Temperature
  • Weather Map
  • Weather Widgets
  • user-avatar
    Login

    Hourly Weather Choh

    Today, 21 February, Friday

    Time Temperature Precipitation Wind Pressure Humidity
    00:00 -1°C° 0 mm 1 mps 624 mmHg 71%
    01:00 -1°C° 0 mm 1 mps 624 mmHg 70%
    02:00 -1°C° 0 mm 1 mps 624 mmHg 69%
    03:00 -2°C° 0 mm 1 mps 624 mmHg 67%
    04:00 -2°C° 0 mm 1 mps 624 mmHg 68%
    05:00 -2°C° 0 mm 1 mps 624 mmHg 69%
    06:00 -2°C° 0 mm 1 mps 624 mmHg 69%
    07:00 -1°C° 0 mm 1 mps 625 mmHg 70%
    08:00 +1°C° 0 mm 1 mps 625 mmHg 71%
    09:00 +1°C° 0 mm 0 mps 626 mmHg 72%
    16:00 +2°C° 0 mm 1 mps 626 mmHg 85%
    17:00 +1°C° 0 mm 1 mps 626 mmHg 86%
    18:00 0°C° 0 mm 1 mps 625 mmHg 88%
    19:00 0°C° 0 mm 1 mps 626 mmHg 85%
    20:00 -1°C° 0 mm 1 mps 626 mmHg 81%
    21:00 -1°C° 0 mm 1 mps 626 mmHg 78%
    22:00 -3°C° 0 mm 2 mps 626 mmHg 76%
    23:00 -3°C° 0 mm 2 mps 626 mmHg 74%

    Tomorrow, 22 February, Saturday

    Time Temperature Precipitation Wind Pressure Humidity
    00:00 -3°C° 0 mm 2 mps 626 mmHg 71%
    01:00 -3°C° 0 mm 2 mps 626 mmHg 70%
    02:00 -3°C° 0 mm 2 mps 627 mmHg 68%
    03:00 -3°C° 0 mm 2 mps 627 mmHg 66%
    04:00 -2°C° 0 mm 2 mps 627 mmHg 66%
    05:00 -2°C° 0 mm 2 mps 627 mmHg 65%
    06:00 -2°C° 0 mm 2 mps 627 mmHg 65%
    07:00 +1°C° 0 mm 1 mps 627 mmHg 64%
    08:00 +1°C° 0 mm 1 mps 628 mmHg 64%
    09:00 +2°C° 0 mm 1 mps 628 mmHg 64%
    10:00 +3°C° 0 mm 1 mps 628 mmHg 63%
    11:00 +4°C° 0 mm 1 mps 629 mmHg 62%
    12:00 +5°C° 0 mm 1 mps 629 mmHg 61%
    13:00 +5°C° 0 mm 1 mps 629 mmHg 63%
    14:00 +5°C° 0 mm 1 mps 629 mmHg 66%
    15:00 +5°C° 0 mm 1 mps 628 mmHg 68%
    16:00 +4°C° 0 mm 1 mps 628 mmHg 71%
    17:00 +2°C° 0 mm 1 mps 628 mmHg 74%
    18:00 +1°C° 0 mm 1 mps 627 mmHg 76%
    19:00 +1°C° 0 mm 1 mps 627 mmHg 76%
    20:00 +1°C° 0 mm 1 mps 627 mmHg 76%
    21:00 +1°C° 0 mm 1 mps 628 mmHg 76%
    22:00 +1°C° 0 mm 1 mps 627 mmHg 76%
    23:00 0°C° 0 mm 1 mps 627 mmHg 76%

    Day after tomorrow, 23 February, Sunday

    Time Temperature Precipitation Wind Pressure Humidity
    00:00 0°C° 0 mm 1 mps 627 mmHg 76%
    01:00 0°C° 0 mm 1 mps 627 mmHg 74%
    02:00 0°C° 0 mm 1 mps 627 mmHg 72%
    03:00 0°C° 0 mm 1 mps 626 mmHg 70%
    04:00 0°C° 0 mm 1 mps 626 mmHg 68%
    05:00 -1°C° 0 mm 1 mps 626 mmHg 66%
    06:00 -1°C° 0 mm 1 mps 626 mmHg 63%
    07:00 0°C° 0 mm 1 mps 627 mmHg 62%
    08:00 +1°C° 0 mm 1 mps 627 mmHg 60%
    09:00 +2°C° 0 mm 1 mps 628 mmHg 58%
    10:00 +3°C° 0 mm 1 mps 628 mmHg 56%
    11:00 +4°C° 0 mm 1 mps 628 mmHg 55%
    12:00 +5°C° 0 mm 1 mps 628 mmHg 53%
    13:00 +5°C° 0 mm 1 mps 627 mmHg 57%
    14:00 +5°C° 0 mm 1 mps 627 mmHg 61%
    15:00 +4°C° 0 mm 2 mps 627 mmHg 65%
    16:00 +3°C° 0 mm 1 mps 626 mmHg 72%
    17:00 +2°C° 0 mm 1 mps 626 mmHg 79%
    18:00 +1°C° 0 mm 1 mps 626 mmHg 86%
    19:00 0°C° 0 mm 1 mps 626 mmHg 86%
    20:00 0°C° 0 mm 1 mps 626 mmHg 85%
    21:00 0°C° 0 mm 1 mps 626 mmHg 85%
    22:00 0°C° 0 mm 1 mps 625 mmHg 85%
    23:00 0°C° 0 mm 1 mps 625 mmHg 84%

    24 February, Monday

    Time Temperature Precipitation Wind Pressure Humidity
    00:00 -1°C° 0 mm 1 mps 625 mmHg 84%
    01:00 -1°C° 0 mm 1 mps 625 mmHg 82%
    02:00 -1°C° 0 mm 1 mps 624 mmHg 81%
    03:00 -3°C° 0 mm 2 mps 624 mmHg 79%
    04:00 -3°C° 0 mm 2 mps 624 mmHg 79%
    05:00 -1°C° 0 mm 1 mps 624 mmHg 80%
    06:00 -1°C° 0 mm 1 mps 623 mmHg 80%
    07:00 -1°C° 0 mm 1 mps 624 mmHg 77%
    08:00 0°C° 0 mm 1 mps 624 mmHg 74%
    09:00 +1°C° 0 mm 1 mps 624 mmHg 70%
    10:00 +2°C° 0 mm 1 mps 624 mmHg 67%
    11:00 +2°C° 0 mm 2 mps 624 mmHg 63%
    12:00 +3°C° 0 mm 2 mps 624 mmHg 59%
    13:00 +3°C° 0 mm 2 mps 623 mmHg 60%
    14:00 +3°C° 0 mm 2 mps 622 mmHg 62%
    15:00 +3°C° 0 mm 2 mps 622 mmHg 63%
    16:00 +1°C° 0 mm 3 mps 621 mmHg 66%
    17:00 0°C° 0 mm 3 mps 620 mmHg 69%
    18:00 -1°C° 0 mm 3 mps 619 mmHg 72%
    19:00 -1°C° 0 mm 3 mps 619 mmHg 69%
    20:00 -2°C° 0 mm 4 mps 619 mmHg 66%
    21:00 -2°C° 0 mm 4 mps 618 mmHg 63%
    22:00 -2°C° 0 mm 4 mps 618 mmHg 63%
    23:00 -2°C° 0 mm 4 mps 617 mmHg 63%

    25 February, Tuesday

    Time Temperature Precipitation Wind Pressure Humidity
    00:00 -2°C° 0 mm 4 mps 617 mmHg 63%
    01:00 -2°C° 0 mm 4 mps 616 mmHg 64%
    02:00 -2°C° 0 mm 4 mps 616 mmHg 64%
    03:00 -1°C° 0 mm 3 mps 615 mmHg 64%
    04:00 -1°C° 0 mm 3 mps 615 mmHg 64%
    05:00 -1°C° 0 mm 3 mps 615 mmHg 64%
    06:00 -2°C° 0 mm 3 mps 615 mmHg 63%
    07:00 -1°C° 0 mm 3 mps 616 mmHg 61%
    08:00 +1°C° 0 mm 2 mps 617 mmHg 59%
    09:00 +2°C° 0 mm 2 mps 617 mmHg 57%
    10:00 +3°C° 0 mm 2 mps 618 mmHg 56%
    11:00 +4°C° 0 mm 2 mps 618 mmHg 55%
    12:00 +3°C° 0 mm 3 mps 619 mmHg 55%
    13:00 +2°C° 0.3 mm 3 mps 618 mmHg 68%
    14:00 0°C° 0.3 mm 3 mps 618 mmHg 82%
    15:00 -2°C° 0.3 mm 4 mps 618 mmHg 95%
    16:00 -2°C° 1 mm 3 mps 618 mmHg 95%
    17:00 -3°C° 1 mm 2 mps 618 mmHg 95%
    18:00 -4°C° 1 mm 2 mps 618 mmHg 95%
    19:00 -4°C° 0.4 mm 2 mps 619 mmHg 94%
    20:00 -4°C° 0.4 mm 2 mps 619 mmHg 94%
    21:00 -5°C° 0.4 mm 2 mps 620 mmHg 93%
    22:00 -5°C° 0.1 mm 2 mps 620 mmHg 92%
    23:00 -6°C° 0.1 mm 2 mps 620 mmHg 90%

    26 February, Wednesday

    Time Temperature Precipitation Wind Pressure Humidity
    00:00 -6°C° 0.1 mm 2 mps 620 mmHg 88%
    01:00 -8°C° 0 mm 3 mps 620 mmHg 85%
    02:00 -8°C° 0 mm 3 mps 620 mmHg 83%
    03:00 -9°C° 0 mm 3 mps 620 mmHg 80%
    04:00 -9°C° 0 mm 3 mps 621 mmHg 78%
    05:00 -9°C° 0 mm 2 mps 621 mmHg 76%
    06:00 -9°C° 0 mm 2 mps 621 mmHg 75%
    07:00 -8°C° 0 mm 2 mps 622 mmHg 70%
    08:00 -7°C° 0 mm 2 mps 623 mmHg 65%
    09:00 -6°C° 0 mm 2 mps 624 mmHg 60%
    10:00 -5°C° 0 mm 2 mps 624 mmHg 55%
    11:00 -4°C° 0 mm 2 mps 625 mmHg 50%
    12:00 -3°C° 0 mm 2 mps 625 mmHg 45%
    13:00 -2°C° 0 mm 2 mps 626 mmHg 43%
    14:00 -1°C° 0 mm 2 mps 626 mmHg 41%
    15:00 -1°C° 0 mm 2 mps 626 mmHg 39%
    16:00 0°C° 0 mm 1 mps 626 mmHg 45%
    17:00 -2°C° 0 mm 1 mps 625 mmHg 50%
    18:00 -3°C° 0 mm 1 mps 625 mmHg 55%
    19:00 -3°C° 0 mm 1 mps 625 mmHg 55%
    20:00 -3°C° 0 mm 1 mps 626 mmHg 55%
    21:00 -5°C° 0 mm 2 mps 626 mmHg 54%
    22:00 -5°C° 0 mm 2 mps 626 mmHg 55%
    23:00 -5°C° 0 mm 2 mps 626 mmHg 55%
    Show more